Year,Month,Day,Hour,Minute,Value (Times are PST for temperature in C)
2011,10,15,00,00,3.30
2011,10,15,00,01,3.30
2011,10,15,00,02,3.30
2011,10,15,00,03,3.30
2011,10,15,00,04,3.30
2011,10,15,00,05,3.30
2011,10,15,00,06,3.30
2011,10,15,00,07,3.30
2011,10,15,00,08,3.30
2011,10,15,00,09,3.30
2011,10,15,00,10,3.30
2011,10,15,00,11,3.30
2011,10,15,00,12,3.30
2011,10,15,00,13,3.20
2011,10,15,00,14,3.20
2011,10,15,00,15,3.20
2011,10,15,00,16,3.20
2011,10,15,00,17,3.20
2011,10,15,00,18,3.20
2011,10,15,00,19,3.10
2011,10,15,00,20,3.10
2011,10,15,00,21,3.10
2011,10,15,00,22,3.10
2011,10,15,00,23,3.10
2011,10,15,00,24,3.00
2011,10,15,00,25,3.00
2011,10,15,00,26,3.00
2011,10,15,00,27,3.00
2011,10,15,00,28,3.00
2011,10,15,00,29,3.00
2011,10,15,00,30,3.00
2011,10,15,00,31,3.00
2011,10,15,00,32,2.90
2011,10,15,00,33,2.90
2011,10,15,00,34,2.90
2011,10,15,00,35,2.90
2011,10,15,00,36,2.90
2011,10,15,00,37,2.90
2011,10,15,00,38,2.90
2011,10,15,00,39,2.90
2011,10,15,00,40,2.90
2011,10,15,00,41,2.90
2011,10,15,00,42,2.80
2011,10,15,00,43,2.80
2011,10,15,00,44,2.80
2011,10,15,00,45,2.80
2011,10,15,00,46,2.80
2011,10,15,00,47,2.70
2011,10,15,00,48,2.70
2011,10,15,00,49,2.70
2011,10,15,00,50,2.70
2011,10,15,00,51,2.70
2011,10,15,00,52,2.70
2011,10,15,00,53,2.60
2011,10,15,00,54,2.60
2011,10,15,00,55,2.60
2011,10,15,00,56,2.60
2011,10,15,00,57,2.50
2011,10,15,00,58,2.50
2011,10,15,00,59,2.50
2011,10,15,01,00,2.50
2011,10,15,01,01,2.50
2011,10,15,01,02,2.50
2011,10,15,01,03,2.40
2011,10,15,01,04,2.40
2011,10,15,01,05,2.40
2011,10,15,01,06,2.40
2011,10,15,01,07,2.40
2011,10,15,01,08,2.40
2011,10,15,01,09,2.40
2011,10,15,01,10,2.40
2011,10,15,01,11,2.40
2011,10,15,01,12,2.40
2011,10,15,01,13,2.40
2011,10,15,01,14,2.40
2011,10,15,01,15,2.40
2011,10,15,01,16,2.40
2011,10,15,01,17,2.40
2011,10,15,01,18,2.40
2011,10,15,01,19,2.40
2011,10,15,01,20,2.40
2011,10,15,01,21,2.40
2011,10,15,01,22,2.40
2011,10,15,01,23,2.40
2011,10,15,01,24,2.40
2011,10,15,01,25,2.40
2011,10,15,01,26,2.40
2011,10,15,01,27,2.40
2011,10,15,01,28,2.30
2011,10,15,01,29,2.30
2011,10,15,01,30,2.30
2011,10,15,01,31,2.30
2011,10,15,01,32,2.30
2011,10,15,01,33,2.30
2011,10,15,01,34,2.30
2011,10,15,01,35,2.20
2011,10,15,01,36,2.20
2011,10,15,01,37,2.20
2011,10,15,01,38,2.20
2011,10,15,01,39,2.20
2011,10,15,01,40,2.20
2011,10,15,01,41,2.20
2011,10,15,01,42,2.10
2011,10,15,01,43,2.10
2011,10,15,01,44,2.10
2011,10,15,01,45,2.10
2011,10,15,01,46,2.00
2011,10,15,01,47,2.00
2011,10,15,01,48,2.00
2011,10,15,01,49,1.90
2011,10,15,01,50,1.90
2011,10,15,01,51,1.90
2011,10,15,01,52,1.90
2011,10,15,01,53,1.90
2011,10,15,01,54,1.90
2011,10,15,01,55,1.90
2011,10,15,01,56,1.90
2011,10,15,01,57,2.00
2011,10,15,01,58,2.00
2011,10,15,01,59,2.00
2011,10,15,02,00,2.00
2011,10,15,02,01,2.10
2011,10,15,02,02,2.10
2011,10,15,02,03,2.10
2011,10,15,02,04,2.10
2011,10,15,02,05,2.10
2011,10,15,02,06,2.00
2011,10,15,02,07,2.10
2011,10,15,02,08,2.00
2011,10,15,02,09,2.10
2011,10,15,02,10,2.10
2011,10,15,02,11,2.10
2011,10,15,02,12,2.20
2011,10,15,02,13,2.20
2011,10,15,02,14,2.20
2011,10,15,02,15,2.20
2011,10,15,02,16,2.20
2011,10,15,02,17,2.20
2011,10,15,02,18,2.20
2011,10,15,02,19,2.20
2011,10,15,02,20,2.20
2011,10,15,02,21,2.20
2011,10,15,02,22,2.20
2011,10,15,02,23,2.20
2011,10,15,02,24,2.10
2011,10,15,02,25,2.10
2011,10,15,02,26,2.00
2011,10,15,02,27,2.00
2011,10,15,02,28,2.00
2011,10,15,02,29,1.90
2011,10,15,02,30,1.90
2011,10,15,02,31,1.90
2011,10,15,02,32,1.80
2011,10,15,02,33,1.80
2011,10,15,02,34,1.80
2011,10,15,02,35,1.70
2011,10,15,02,36,1.70
2011,10,15,02,37,1.70
2011,10,15,02,38,1.70
2011,10,15,02,39,1.60
2011,10,15,02,40,1.60
2011,10,15,02,41,1.60
2011,10,15,02,42,1.60
2011,10,15,02,43,1.60
2011,10,15,02,44,1.70
2011,10,15,02,45,1.70
2011,10,15,02,46,1.70
2011,10,15,02,47,1.70
2011,10,15,02,48,1.70
2011,10,15,02,49,1.70
2011,10,15,02,50,1.70
2011,10,15,02,51,1.70
2011,10,15,02,52,1.60
2011,10,15,02,53,1.60
2011,10,15,02,54,1.60
2011,10,15,02,55,1.60
2011,10,15,02,56,1.50
2011,10,15,02,57,1.50
2011,10,15,02,58,1.50
2011,10,15,02,59,1.40
2011,10,15,03,00,1.40
2011,10,15,03,01,1.40
2011,10,15,03,02,1.40
2011,10,15,03,03,1.40
2011,10,15,03,04,1.50
2011,10,15,03,05,1.40
2011,10,15,03,06,1.40
2011,10,15,03,07,1.50
2011,10,15,03,08,1.50
2011,10,15,03,09,1.50
2011,10,15,03,10,1.50
2011,10,15,03,11,1.50
2011,10,15,03,12,1.50
2011,10,15,03,13,1.50
2011,10,15,03,14,1.50
2011,10,15,03,15,1.50
2011,10,15,03,16,1.50
2011,10,15,03,17,1.50
2011,10,15,03,18,1.50
2011,10,15,03,19,1.50
2011,10,15,03,20,1.40
2011,10,15,03,21,1.40
2011,10,15,03,22,1.40
2011,10,15,03,23,1.40
2011,10,15,03,24,1.30
2011,10,15,03,25,1.30
2011,10,15,03,26,1.30
2011,10,15,03,27,1.30
2011,10,15,03,28,1.30
2011,10,15,03,29,1.30
2011,10,15,03,30,1.30
2011,10,15,03,31,1.30
2011,10,15,03,32,1.30
2011,10,15,03,33,1.30
2011,10,15,03,34,1.40
2011,10,15,03,35,1.40
2011,10,15,03,36,1.40
2011,10,15,03,37,1.40
2011,10,15,03,38,1.40
2011,10,15,03,39,1.40
2011,10,15,03,40,1.40
2011,10,15,03,41,1.40
2011,10,15,03,42,1.40
2011,10,15,03,43,1.30
2011,10,15,03,44,1.30
2011,10,15,03,45,1.30
2011,10,15,03,46,1.30
2011,10,15,03,47,1.30
2011,10,15,03,48,1.30
2011,10,15,03,49,1.30
2011,10,15,03,50,1.30
2011,10,15,03,51,1.30
2011,10,15,03,52,1.30
2011,10,15,03,53,1.30
2011,10,15,03,54,1.30
2011,10,15,03,55,1.30
2011,10,15,03,56,1.30
2011,10,15,03,57,1.30
2011,10,15,03,58,1.30
2011,10,15,03,59,1.30
2011,10,15,04,00,1.30
2011,10,15,04,01,1.30
2011,10,15,04,02,1.30
2011,10,15,04,03,1.30
2011,10,15,04,04,1.30
2011,10,15,04,05,1.30
2011,10,15,04,06,1.30
2011,10,15,04,07,1.30
2011,10,15,04,08,1.30
2011,10,15,04,09,1.30
2011,10,15,04,10,1.30
2011,10,15,04,11,1.30
2011,10,15,04,12,1.30
2011,10,15,04,13,1.30
2011,10,15,04,14,1.30
2011,10,15,04,15,1.30
2011,10,15,04,16,1.30
2011,10,15,04,17,1.30
2011,10,15,04,18,1.30
2011,10,15,04,19,1.30
2011,10,15,04,20,1.30
2011,10,15,04,21,1.30
2011,10,15,04,22,1.20
2011,10,15,04,23,1.20
2011,10,15,04,24,1.20
2011,10,15,04,25,1.20
2011,10,15,04,26,1.20
2011,10,15,04,27,1.20
2011,10,15,04,28,1.20
2011,10,15,04,29,1.20
2011,10,15,04,30,1.20
2011,10,15,04,31,1.20
2011,10,15,04,32,1.30
2011,10,15,04,33,1.30
2011,10,15,04,34,1.30
2011,10,15,04,35,1.30
2011,10,15,04,36,1.30
2011,10,15,04,37,1.30
2011,10,15,04,38,1.30
2011,10,15,04,39,1.30
2011,10,15,04,40,1.30
2011,10,15,04,41,1.40
2011,10,15,04,42,1.40
2011,10,15,04,43,1.40
2011,10,15,04,44,1.50
2011,10,15,04,45,1.50
2011,10,15,04,46,1.40
2011,10,15,04,47,1.40
2011,10,15,04,48,1.30
2011,10,15,04,49,1.30
2011,10,15,04,50,1.30
2011,10,15,04,51,1.30
2011,10,15,04,52,1.30
2011,10,15,04,53,1.20
2011,10,15,04,54,1.10
2011,10,15,04,55,1.10
2011,10,15,04,56,1.00
2011,10,15,04,57,0.90
2011,10,15,04,58,0.90
2011,10,15,04,59,0.80
2011,10,15,05,00,0.80
2011,10,15,05,01,0.70
2011,10,15,05,02,0.70
2011,10,15,05,03,0.70
2011,10,15,05,04,0.70
2011,10,15,05,05,0.70
2011,10,15,05,06,0.70
2011,10,15,05,07,0.70
2011,10,15,05,08,0.70
2011,10,15,05,09,0.70
2011,10,15,05,10,0.70
2011,10,15,05,11,0.70
2011,10,15,05,12,0.70
2011,10,15,05,13,0.70
2011,10,15,05,14,0.70
2011,10,15,05,15,0.70
2011,10,15,05,16,0.80
2011,10,15,05,17,0.80
2011,10,15,05,18,0.70
2011,10,15,05,19,0.70
2011,10,15,05,20,0.70
2011,10,15,05,21,0.80
2011,10,15,05,22,0.80
2011,10,15,05,23,0.80
2011,10,15,05,24,0.80
2011,10,15,05,25,0.80
2011,10,15,05,26,0.80
2011,10,15,05,27,0.80
2011,10,15,05,28,0.90
2011,10,15,05,29,0.90
2011,10,15,05,30,0.90
2011,10,15,05,31,1.00
2011,10,15,05,32,1.00
2011,10,15,05,33,1.00
2011,10,15,05,34,1.10
2011,10,15,05,35,1.10
2011,10,15,05,36,1.10
2011,10,15,05,37,1.00
2011,10,15,05,38,1.00
2011,10,15,05,39,1.00
2011,10,15,05,40,0.90
2011,10,15,05,41,0.90
2011,10,15,05,42,0.90
2011,10,15,05,43,0.90
2011,10,15,05,44,0.80
2011,10,15,05,45,0.80
2011,10,15,05,46,0.80
2011,10,15,05,47,0.80
2011,10,15,05,48,0.70
2011,10,15,05,49,0.70
2011,10,15,05,50,0.70
2011,10,15,05,51,0.70
2011,10,15,05,52,0.70
2011,10,15,05,53,0.70
2011,10,15,05,54,0.70
2011,10,15,05,55,0.70
2011,10,15,05,56,0.70
2011,10,15,05,57,0.80
2011,10,15,05,58,0.80
2011,10,15,05,59,0.80
2011,10,15,06,00,0.80
2011,10,15,06,01,0.80
2011,10,15,06,02,0.80
2011,10,15,06,03,0.80
2011,10,15,06,04,0.80
2011,10,15,06,05,0.80
2011,10,15,06,06,0.70
2011,10,15,06,07,0.70
2011,10,15,06,08,0.70
2011,10,15,06,09,0.70
2011,10,15,06,10,0.70
2011,10,15,06,11,0.70
2011,10,15,06,12,0.70
2011,10,15,06,13,0.70
2011,10,15,06,14,0.80
2011,10,15,06,15,0.80
2011,10,15,06,16,0.80
2011,10,15,06,17,0.80
2011,10,15,06,18,0.70
2011,10,15,06,19,0.70
2011,10,15,06,20,0.70
2011,10,15,06,21,0.70
2011,10,15,06,22,0.70
2011,10,15,06,23,0.60
2011,10,15,06,24,0.60
2011,10,15,06,25,0.60
2011,10,15,06,26,0.60
2011,10,15,06,27,0.60
2011,10,15,06,28,0.60
2011,10,15,06,29,0.60
2011,10,15,06,30,0.60
2011,10,15,06,31,0.70
2011,10,15,06,32,0.70
2011,10,15,06,33,0.70
2011,10,15,06,34,0.70
2011,10,15,06,35,0.70
2011,10,15,06,36,0.70
2011,10,15,06,37,0.60
2011,10,15,06,38,0.60
2011,10,15,06,39,0.60
2011,10,15,06,40,0.60
2011,10,15,06,41,0.60
2011,10,15,06,42,0.50
2011,10,15,06,43,0.50
2011,10,15,06,44,0.40
2011,10,15,06,45,0.40
2011,10,15,06,46,0.40
2011,10,15,06,47,0.40
2011,10,15,06,48,0.40
2011,10,15,06,49,0.30
2011,10,15,06,50,0.30
2011,10,15,06,51,0.30
2011,10,15,06,52,0.30
2011,10,15,06,53,0.30
2011,10,15,06,54,0.30
2011,10,15,06,55,0.20
2011,10,15,06,56,0.20
2011,10,15,06,57,0.20
2011,10,15,06,58,0.20
2011,10,15,06,59,0.20
2011,10,15,07,00,0.10
2011,10,15,07,01,0.10
2011,10,15,07,02,0.10
2011,10,15,07,03,0.10
2011,10,15,07,04,0.10
2011,10,15,07,05,0.10
2011,10,15,07,06,0.10
2011,10,15,07,07,0.10
2011,10,15,07,08,0.10
2011,10,15,07,09,0.10
2011,10,15,07,10,0.10
2011,10,15,07,11,0.10
2011,10,15,07,12,0.10
2011,10,15,07,13,0.10
2011,10,15,07,14,0.10
2011,10,15,07,15,0.20
2011,10,15,07,16,0.20
2011,10,15,07,17,0.20
2011,10,15,07,18,0.30
2011,10,15,07,19,0.30
2011,10,15,07,20,0.40
2011,10,15,07,21,0.50
2011,10,15,07,22,0.60
2011,10,15,07,23,0.70
2011,10,15,07,24,0.90
2011,10,15,07,25,1.20
2011,10,15,07,26,1.30
2011,10,15,07,27,1.50
2011,10,15,07,28,1.70
2011,10,15,07,29,1.80
2011,10,15,07,30,1.90
2011,10,15,07,31,2.00
2011,10,15,07,32,2.10
2011,10,15,07,33,2.10
2011,10,15,07,34,2.20
2011,10,15,07,35,2.20
2011,10,15,07,36,2.10
2011,10,15,07,37,2.10
2011,10,15,07,38,2.10
2011,10,15,07,39,2.10
2011,10,15,07,40,2.10
2011,10,15,07,41,2.10
2011,10,15,07,42,2.00
2011,10,15,07,43,1.90
2011,10,15,07,44,1.80
2011,10,15,07,45,1.70
2011,10,15,07,46,1.60
2011,10,15,07,47,1.40
2011,10,15,07,48,1.30
2011,10,15,07,49,1.30
2011,10,15,07,50,1.30
2011,10,15,07,51,1.20
2011,10,15,07,52,1.10
2011,10,15,07,53,1.00
2011,10,15,07,54,0.90
2011,10,15,07,55,0.90
2011,10,15,07,56,0.90
2011,10,15,07,57,0.80
2011,10,15,07,58,0.80
2011,10,15,07,59,0.80
2011,10,15,08,00,0.80
2011,10,15,08,01,0.70
2011,10,15,08,02,0.70
2011,10,15,08,03,0.70
2011,10,15,08,04,0.70
2011,10,15,08,05,0.70
2011,10,15,08,06,0.80
2011,10,15,08,07,0.80
2011,10,15,08,08,0.80
2011,10,15,08,09,0.90
2011,10,15,08,10,1.00
2011,10,15,08,11,1.00
2011,10,15,08,12,1.10
2011,10,15,08,13,1.20
2011,10,15,08,14,1.30
2011,10,15,08,15,1.30
2011,10,15,08,16,1.50
2011,10,15,08,17,1.60
2011,10,15,08,18,1.60
2011,10,15,08,19,1.70
2011,10,15,08,20,1.70
2011,10,15,08,21,1.70
2011,10,15,08,22,1.70
2011,10,15,08,23,1.80
2011,10,15,08,24,1.80
2011,10,15,08,25,1.80
2011,10,15,08,26,1.80
2011,10,15,08,27,1.80
2011,10,15,08,28,1.80
2011,10,15,08,29,1.80
2011,10,15,08,30,1.80
2011,10,15,08,31,1.70
2011,10,15,08,32,1.50
2011,10,15,08,33,1.40
2011,10,15,08,34,1.30
2011,10,15,08,35,1.30
2011,10,15,08,36,1.30
2011,10,15,08,37,1.30
2011,10,15,08,38,1.30
2011,10,15,08,39,1.60
2011,10,15,08,40,1.80
2011,10,15,08,41,2.00
2011,10,15,08,42,2.20
2011,10,15,08,43,2.50
2011,10,15,08,44,2.70
2011,10,15,08,45,2.90
2011,10,15,08,46,3.00
2011,10,15,08,47,3.20
2011,10,15,08,48,3.40
2011,10,15,08,49,3.60
2011,10,15,08,50,3.70
2011,10,15,08,51,3.90
2011,10,15,08,52,4.10
2011,10,15,08,53,4.30
2011,10,15,08,54,4.40
2011,10,15,08,55,4.50
2011,10,15,08,56,4.60
2011,10,15,08,57,4.60
2011,10,15,08,58,4.70
2011,10,15,08,59,4.70
2011,10,15,09,00,4.80
2011,10,15,09,01,4.80
2011,10,15,09,02,4.80
2011,10,15,09,03,4.90
2011,10,15,09,04,5.00
2011,10,15,09,05,5.00
2011,10,15,09,06,5.10
2011,10,15,09,07,5.10
2011,10,15,09,08,5.20
2011,10,15,09,09,5.20
2011,10,15,09,10,5.30
2011,10,15,09,11,5.30
2011,10,15,09,12,5.40
2011,10,15,09,13,5.50
2011,10,15,09,14,5.50
2011,10,15,09,15,5.60
2011,10,15,09,16,5.60
2011,10,15,09,17,5.60
2011,10,15,09,18,5.70
2011,10,15,09,19,5.70
2011,10,15,09,20,5.80
2011,10,15,09,21,5.90
2011,10,15,09,22,5.90
2011,10,15,09,23,6.00
2011,10,15,09,24,6.10
2011,10,15,09,25,6.20
2011,10,15,09,26,6.30
2011,10,15,09,27,6.30
2011,10,15,09,28,6.40
2011,10,15,09,29,6.50
2011,10,15,09,30,6.50
2011,10,15,09,31,6.50
2011,10,15,09,32,6.60
2011,10,15,09,33,6.60
2011,10,15,09,34,6.70
2011,10,15,09,35,6.70
2011,10,15,09,36,6.70
2011,10,15,09,37,6.80
2011,10,15,09,38,6.80
2011,10,15,09,39,6.80
2011,10,15,09,40,6.90
2011,10,15,09,41,6.90
2011,10,15,09,42,6.90
2011,10,15,09,43,7.00
2011,10,15,09,44,7.10
2011,10,15,09,45,7.10
2011,10,15,09,46,7.10
2011,10,15,09,47,7.20
2011,10,15,09,48,7.20
2011,10,15,09,49,7.20
2011,10,15,09,50,7.30
2011,10,15,09,51,7.30
2011,10,15,09,52,7.40
2011,10,15,09,53,7.40
2011,10,15,09,54,7.40
2011,10,15,09,55,7.50
2011,10,15,09,56,7.50
2011,10,15,09,57,7.60
2011,10,15,09,58,7.60
2011,10,15,09,59,7.70
2011,10,15,10,00,7.70
2011,10,15,10,01,7.70
2011,10,15,10,02,7.80
2011,10,15,10,03,7.80
2011,10,15,10,04,7.90
2011,10,15,10,05,7.90
2011,10,15,10,06,7.90
2011,10,15,10,07,8.00
2011,10,15,10,08,8.00
2011,10,15,10,09,8.00
2011,10,15,10,10,8.10
2011,10,15,10,11,8.10
2011,10,15,10,12,8.10
2011,10,15,10,13,8.10
2011,10,15,10,14,8.20
2011,10,15,10,15,8.20
2011,10,15,10,16,8.20
2011,10,15,10,17,8.20
2011,10,15,10,18,8.20
2011,10,15,10,19,8.30
2011,10,15,10,20,8.30
2011,10,15,10,21,8.30
2011,10,15,10,22,8.30
2011,10,15,10,23,8.30
2011,10,15,10,24,8.40
2011,10,15,10,25,8.40
2011,10,15,10,26,8.40
2011,10,15,10,27,8.40
2011,10,15,10,28,8.50
2011,10,15,10,29,8.50
2011,10,15,10,30,8.50
2011,10,15,10,31,8.50
2011,10,15,10,32,8.60
2011,10,15,10,33,8.60
2011,10,15,10,34,8.60
2011,10,15,10,35,8.60
2011,10,15,10,36,8.60
2011,10,15,10,37,8.70
2011,10,15,10,38,8.70
2011,10,15,10,39,8.70
2011,10,15,10,40,8.80
2011,10,15,10,41,8.80
2011,10,15,10,42,8.80
2011,10,15,10,43,8.80
2011,10,15,10,44,8.80
2011,10,15,10,45,8.80
2011,10,15,10,46,8.80
2011,10,15,10,47,8.80
2011,10,15,10,48,8.90
2011,10,15,10,49,8.90
2011,10,15,10,50,8.90
2011,10,15,10,51,8.90
2011,10,15,10,52,8.90
2011,10,15,10,53,8.90
2011,10,15,10,54,9.00
2011,10,15,10,55,9.10
2011,10,15,10,56,9.10
2011,10,15,10,57,9.10
2011,10,15,10,58,9.10
2011,10,15,10,59,9.20
2011,10,15,11,00,9.20
2011,10,15,11,01,9.20
2011,10,15,11,02,9.20
2011,10,15,11,03,9.20
2011,10,15,11,04,9.20
2011,10,15,11,05,9.20
2011,10,15,11,06,9.30
2011,10,15,11,07,9.30
2011,10,15,11,08,9.30
2011,10,15,11,09,9.30
2011,10,15,11,10,9.40
2011,10,15,11,11,9.50
2011,10,15,11,12,9.50
2011,10,15,11,13,9.60
2011,10,15,11,14,9.60
2011,10,15,11,15,9.70
2011,10,15,11,16,9.70
2011,10,15,11,17,9.70
2011,10,15,11,18,9.80
2011,10,15,11,19,9.80
2011,10,15,11,20,9.90
2011,10,15,11,21,9.90
2011,10,15,11,22,9.90
2011,10,15,11,23,10.00
2011,10,15,11,24,10.10
2011,10,15,11,25,10.10
2011,10,15,11,26,10.20
2011,10,15,11,27,10.20
2011,10,15,11,28,10.20
2011,10,15,11,29,10.20
2011,10,15,11,30,10.20
2011,10,15,11,31,10.20
2011,10,15,11,32,10.20
2011,10,15,11,33,10.20
2011,10,15,11,34,10.30
2011,10,15,11,35,10.40
2011,10,15,11,36,10.40
2011,10,15,11,37,10.50
2011,10,15,11,38,10.50
2011,10,15,11,39,10.40
2011,10,15,11,40,10.40
2011,10,15,11,41,10.50
2011,10,15,11,42,10.40
2011,10,15,11,43,10.40
2011,10,15,11,44,10.40
2011,10,15,11,45,10.40
2011,10,15,11,46,10.40
2011,10,15,11,47,10.40
2011,10,15,11,48,10.40
2011,10,15,11,49,10.40
2011,10,15,11,50,10.40
2011,10,15,11,51,10.40
2011,10,15,11,52,10.40
2011,10,15,11,53,10.40
2011,10,15,11,54,10.40
2011,10,15,11,55,10.40
2011,10,15,11,56,10.50
2011,10,15,11,57,10.50
2011,10,15,11,58,10.50
2011,10,15,11,59,10.50
2011,10,15,12,00,10.50
2011,10,15,12,01,10.40
2011,10,15,12,02,10.50
2011,10,15,12,03,10.50
2011,10,15,12,04,10.60
2011,10,15,12,05,10.60
2011,10,15,12,06,10.60
2011,10,15,12,07,10.70
2011,10,15,12,08,10.80
2011,10,15,12,09,10.80
2011,10,15,12,10,10.80
2011,10,15,12,11,10.80
2011,10,15,12,12,10.80
2011,10,15,12,13,10.90
2011,10,15,12,14,10.80
2011,10,15,12,15,10.80
2011,10,15,12,16,10.80
2011,10,15,12,17,10.90
2011,10,15,12,18,10.80
2011,10,15,12,19,10.80
2011,10,15,12,20,10.80
2011,10,15,12,21,10.90
2011,10,15,12,22,10.90
2011,10,15,12,23,10.90
2011,10,15,12,24,10.90
2011,10,15,12,25,10.90
2011,10,15,12,26,10.90
2011,10,15,12,27,11.00
2011,10,15,12,28,11.00
2011,10,15,12,29,11.10
2011,10,15,12,30,11.10
2011,10,15,12,31,11.10
2011,10,15,12,32,11.20
2011,10,15,12,33,11.20
2011,10,15,12,34,11.20
2011,10,15,12,35,11.30
2011,10,15,12,36,11.30
2011,10,15,12,37,11.20
2011,10,15,12,38,11.20
2011,10,15,12,39,11.20
2011,10,15,12,40,11.20
2011,10,15,12,41,11.20
2011,10,15,12,42,11.20
2011,10,15,12,43,11.10
2011,10,15,12,44,11.10
2011,10,15,12,45,11.10
2011,10,15,12,46,11.10
2011,10,15,12,47,11.10
2011,10,15,12,48,11.20
2011,10,15,12,49,11.20
2011,10,15,12,50,11.20
2011,10,15,12,51,11.20
2011,10,15,12,52,11.30
2011,10,15,12,53,11.30
2011,10,15,12,54,11.30
2011,10,15,12,55,11.40
2011,10,15,12,56,11.40
2011,10,15,12,57,11.40
2011,10,15,12,58,11.50
2011,10,15,12,59,11.50
2011,10,15,13,00,11.50
2011,10,15,13,01,11.60
2011,10,15,13,02,11.60
2011,10,15,13,03,11.60
2011,10,15,13,04,11.60
2011,10,15,13,05,11.50
2011,10,15,13,06,11.50
2011,10,15,13,07,11.50
2011,10,15,13,08,11.50
2011,10,15,13,09,11.50
2011,10,15,13,10,11.50
2011,10,15,13,11,11.50
2011,10,15,13,12,11.60
2011,10,15,13,13,11.60
2011,10,15,13,14,11.60
2011,10,15,13,15,11.60
2011,10,15,13,16,11.60
2011,10,15,13,17,11.70
2011,10,15,13,18,11.70
2011,10,15,13,19,11.70
2011,10,15,13,20,11.70
2011,10,15,13,21,11.70
2011,10,15,13,22,11.70
2011,10,15,13,23,11.60
2011,10,15,13,24,11.60
2011,10,15,13,25,11.50
2011,10,15,13,26,11.60
2011,10,15,13,27,11.60
2011,10,15,13,28,11.60
2011,10,15,13,29,11.60
2011,10,15,13,30,11.70
2011,10,15,13,31,11.60
2011,10,15,13,32,11.60
2011,10,15,13,33,11.60
2011,10,15,13,34,11.70
2011,10,15,13,35,11.70
2011,10,15,13,36,11.80
2011,10,15,13,37,11.80
2011,10,15,13,38,11.90
2011,10,15,13,39,11.90
2011,10,15,13,40,11.90
2011,10,15,13,41,11.90
2011,10,15,13,42,11.90
2011,10,15,13,43,11.90
2011,10,15,13,44,11.90
2011,10,15,13,45,11.90
2011,10,15,13,46,11.90
2011,10,15,13,47,11.90
2011,10,15,13,48,11.90
2011,10,15,13,49,11.90
2011,10,15,13,50,11.90
2011,10,15,13,51,11.90
2011,10,15,13,52,11.90
2011,10,15,13,53,11.90
2011,10,15,13,54,11.90
2011,10,15,13,55,11.90
2011,10,15,13,56,11.90
2011,10,15,13,57,11.90
2011,10,15,13,58,11.90
2011,10,15,13,59,12.00
2011,10,15,14,00,12.10
2011,10,15,14,01,12.10
2011,10,15,14,02,12.10
2011,10,15,14,03,12.20
2011,10,15,14,04,12.20
2011,10,15,14,05,12.20
2011,10,15,14,06,12.20
2011,10,15,14,07,12.20
2011,10,15,14,08,12.20
2011,10,15,14,09,12.20
2011,10,15,14,10,12.20
2011,10,15,14,11,12.20
2011,10,15,14,12,12.10
2011,10,15,14,13,12.10
2011,10,15,14,14,12.20
2011,10,15,14,15,12.20
2011,10,15,14,16,12.20
2011,10,15,14,17,12.20
2011,10,15,14,18,12.10
2011,10,15,14,19,12.10
2011,10,15,14,20,12.10
2011,10,15,14,21,12.10
2011,10,15,14,22,12.20
2011,10,15,14,23,12.20
2011,10,15,14,24,12.30
2011,10,15,14,25,12.30
2011,10,15,14,26,12.30
2011,10,15,14,27,12.30
2011,10,15,14,28,12.30
2011,10,15,14,29,12.30
2011,10,15,14,30,12.30
2011,10,15,14,31,12.20
2011,10,15,14,32,12.20
2011,10,15,14,33,12.30
2011,10,15,14,34,12.30
2011,10,15,14,35,12.30
2011,10,15,14,36,12.30
2011,10,15,14,37,12.30
2011,10,15,14,38,12.30
2011,10,15,14,39,12.30
2011,10,15,14,40,12.30
2011,10,15,14,41,12.40
2011,10,15,14,42,12.40
2011,10,15,14,43,12.40
2011,10,15,14,44,12.30
2011,10,15,14,45,12.30
2011,10,15,14,46,12.40
2011,10,15,14,47,12.40
2011,10,15,14,48,12.40
2011,10,15,14,49,12.40
2011,10,15,14,50,12.40
2011,10,15,14,51,12.40
2011,10,15,14,52,12.40
2011,10,15,14,53,12.40
2011,10,15,14,54,12.40
2011,10,15,14,55,12.50
2011,10,15,14,56,12.50
2011,10,15,14,57,12.50
2011,10,15,14,58,12.50
2011,10,15,14,59,12.60
2011,10,15,15,00,12.60
2011,10,15,15,01,12.60
2011,10,15,15,02,12.60
2011,10,15,15,03,12.60
2011,10,15,15,04,12.60
2011,10,15,15,05,12.60
2011,10,15,15,06,12.60
2011,10,15,15,07,12.60
2011,10,15,15,08,12.60
2011,10,15,15,09,12.70
2011,10,15,15,10,12.70
2011,10,15,15,11,12.60
2011,10,15,15,12,12.60
2011,10,15,15,13,12.50
2011,10,15,15,14,12.50
2011,10,15,15,15,12.40
2011,10,15,15,16,12.40
2011,10,15,15,17,12.40
2011,10,15,15,18,12.40
2011,10,15,15,19,12.40
2011,10,15,15,20,12.50
2011,10,15,15,21,12.50
2011,10,15,15,22,12.50
2011,10,15,15,23,12.50
2011,10,15,15,24,12.60
2011,10,15,15,25,12.60
2011,10,15,15,26,12.60
2011,10,15,15,27,12.60
2011,10,15,15,28,12.60
2011,10,15,15,29,12.60
2011,10,15,15,30,12.60
2011,10,15,15,31,12.60
2011,10,15,15,32,12.70
2011,10,15,15,33,12.60
2011,10,15,15,34,12.70
2011,10,15,15,35,12.60
2011,10,15,15,36,12.60
2011,10,15,15,37,12.60
2011,10,15,15,38,12.60
2011,10,15,15,39,12.60
2011,10,15,15,40,12.60
2011,10,15,15,41,12.70
2011,10,15,15,42,12.70
2011,10,15,15,43,12.70
2011,10,15,15,44,12.70
2011,10,15,15,45,12.70
2011,10,15,15,46,12.70
2011,10,15,15,47,12.80
2011,10,15,15,48,12.80
2011,10,15,15,49,12.80
2011,10,15,15,50,12.80
2011,10,15,15,51,12.80
2011,10,15,15,52,12.80
2011,10,15,15,53,12.80
2011,10,15,15,54,12.80
2011,10,15,15,55,12.80
2011,10,15,15,56,12.80
2011,10,15,15,57,12.80
2011,10,15,15,58,12.80
2011,10,15,15,59,12.80
2011,10,15,16,00,12.80
2011,10,15,16,01,12.80
2011,10,15,16,02,12.80
2011,10,15,16,03,12.80
2011,10,15,16,04,12.70
2011,10,15,16,05,12.70
2011,10,15,16,06,12.70
2011,10,15,16,07,12.70
2011,10,15,16,08,12.70
2011,10,15,16,09,12.70
2011,10,15,16,10,12.60
2011,10,15,16,11,12.60
2011,10,15,16,12,12.60
2011,10,15,16,13,12.60
2011,10,15,16,14,12.60
2011,10,15,16,15,12.60
2011,10,15,16,16,12.50
2011,10,15,16,17,12.50
2011,10,15,16,18,12.50
2011,10,15,16,19,12.40
2011,10,15,16,20,12.40
2011,10,15,16,21,12.40
2011,10,15,16,22,12.40
2011,10,15,16,23,12.30
2011,10,15,16,24,12.30
2011,10,15,16,25,12.30
2011,10,15,16,26,12.30
2011,10,15,16,27,12.30
2011,10,15,16,28,12.30
2011,10,15,16,29,12.30
2011,10,15,16,30,12.30
2011,10,15,16,31,12.30
2011,10,15,16,32,12.30
2011,10,15,16,33,12.30
2011,10,15,16,34,12.30
2011,10,15,16,35,12.30
2011,10,15,16,36,12.20
2011,10,15,16,37,12.20
2011,10,15,16,38,12.20
2011,10,15,16,39,12.20
2011,10,15,16,40,12.20
2011,10,15,16,41,12.20
2011,10,15,16,42,12.10
2011,10,15,16,43,12.10
2011,10,15,16,44,12.20
2011,10,15,16,45,12.20
2011,10,15,16,46,12.20
2011,10,15,16,47,12.20
2011,10,15,16,48,12.20
2011,10,15,16,49,12.20
2011,10,15,16,50,12.20
2011,10,15,16,51,12.20
2011,10,15,16,52,12.20
2011,10,15,16,53,12.20
2011,10,15,16,54,12.20
2011,10,15,16,55,12.10
2011,10,15,16,56,12.10
2011,10,15,16,57,12.10
2011,10,15,16,58,12.10
2011,10,15,16,59,12.10
2011,10,15,17,00,12.20
2011,10,15,17,01,12.20
2011,10,15,17,02,12.20
2011,10,15,17,03,12.20
2011,10,15,17,04,12.20
2011,10,15,17,05,12.20
2011,10,15,17,06,12.20
2011,10,15,17,07,12.20
2011,10,15,17,08,12.20
2011,10,15,17,09,12.20
2011,10,15,17,10,12.20
2011,10,15,17,11,12.20
2011,10,15,17,12,12.20
2011,10,15,17,13,12.20
2011,10,15,17,14,12.20
2011,10,15,17,15,12.10
2011,10,15,17,16,12.10
2011,10,15,17,17,12.20
2011,10,15,17,18,12.10
2011,10,15,17,19,12.10
2011,10,15,17,20,12.00
2011,10,15,17,21,11.90
2011,10,15,17,22,11.90
2011,10,15,17,23,11.90
2011,10,15,17,24,11.90
2011,10,15,17,25,11.80
2011,10,15,17,26,11.80
2011,10,15,17,27,11.80
2011,10,15,17,28,11.80
2011,10,15,17,29,11.80
2011,10,15,17,30,11.80
2011,10,15,17,31,11.80
2011,10,15,17,32,11.70
2011,10,15,17,33,11.70
2011,10,15,17,34,11.70
2011,10,15,17,35,11.70
2011,10,15,17,36,11.70
2011,10,15,17,37,11.70
2011,10,15,17,38,11.70
2011,10,15,17,39,11.70
2011,10,15,17,40,11.70
2011,10,15,17,41,11.60
2011,10,15,17,42,11.60
2011,10,15,17,43,11.60
2011,10,15,17,44,11.60
2011,10,15,17,45,11.50
2011,10,15,17,46,11.50
2011,10,15,17,47,11.50
2011,10,15,17,48,11.50
2011,10,15,17,49,11.50